WMT79 LUKK-LZIB

Flight info

Callsign WMT79
Flight time 1h 16m
Altitude 38000
Route NUNTA DCT REPTO DCT PITOK DCT KALIF DCT SLC/N0353F240 N190 NIT
Aircraft A20N/M-SDE1E2E3FGIJ1J4RWXY/LB1

Departure

Time 2026-05-04 18:32
Airport Chişinău International Airport (LUKK)

Arrival

Time 2026-05-04 19:48
Airport M. R. Štefánik Airport (LZIB)
Time Latitude Longitude Altitude Speed Heading
2026-05-04 18:03 46.93433 28.92910 351 ft 0 kts
2026-05-04 18:25 46.93442 28.92907 360 ft 2 kts 347°
2026-05-04 18:26 46.93464 28.92893 351 ft 4 kts 328°
2026-05-04 18:26 46.93481 28.92849 355 ft 6 kts 285°
2026-05-04 18:26 46.93481 28.92792 356 ft 6 kts 253°
2026-05-04 18:26 46.93450 28.92761 357 ft 6 kts 197°
2026-05-04 18:27 46.93391 28.92751 355 ft 11 kts 186°
2026-05-04 18:27 46.93338 28.92742 355 ft 11 kts 187°
2026-05-04 18:27 46.93259 28.92727 357 ft 10 kts 188°
2026-05-04 18:27 46.93220 28.92652 359 ft 10 kts 263°
2026-05-04 18:28 46.93226 28.92530 367 ft 15 kts 276°
2026-05-04 18:28 46.93240 28.92367 364 ft 17 kts 277°
2026-05-04 18:28 46.93254 28.92198 370 ft 17 kts 277°
2026-05-04 18:28 46.93257 28.92061 372 ft 9 kts 242°
2026-05-04 18:29 46.93200 28.92021 373 ft 10 kts 195°
2026-05-04 18:29 46.93131 28.91998 374 ft 11 kts 202°
2026-05-04 18:29 46.93058 28.91987 374 ft 11 kts 179°
2026-05-04 18:29 46.92982 28.91991 374 ft 10 kts 180°
2026-05-04 18:30 46.92818 28.91998 375 ft 10 kts 180°
2026-05-04 18:30 46.92762 28.92028 375 ft 9 kts 126°
2026-05-04 18:30 46.92757 28.92143 372 ft 15 kts 85°
2026-05-04 18:31 46.92765 28.92666 362 ft 87 kts 87°
2026-05-04 18:31 46.92791 28.93853 329 ft 143 kts 88°
2026-05-04 18:31 46.92828 28.95493 498 ft 168 kts 89°
2026-05-04 18:31 46.92866 28.97210 984 ft 174 kts 89°
2026-05-04 18:32 46.92899 28.99083 1351 ft 196 kts 88°
2026-05-04 18:32 46.92936 29.01179 1890 ft 216 kts 88°
2026-05-04 18:32 46.92980 29.03431 2559 ft 234 kts 87°
2026-05-04 18:32 46.93138 29.05889 3255 ft 249 kts 73°
2026-05-04 18:33 46.93946 29.08104 4254 ft 249 kts 48°
2026-05-04 18:33 46.95351 29.09553 5293 ft 251 kts 21°
2026-05-04 18:33 46.97084 29.09865 6314 ft 257 kts 355°
2026-05-04 18:33 46.98766 29.08905 7266 ft 268 kts 328°
2026-05-04 18:34 47.00012 29.06831 8209 ft 280 kts 303°
2026-05-04 18:34 47.00815 29.04186 9164 ft 287 kts 296°
2026-05-04 18:34 47.01506 29.01434 10136 ft 289 kts 296°
2026-05-04 18:34 47.02217 28.98597 10650 ft 308 kts 296°
2026-05-04 18:35 47.03016 28.95559 10935 ft 332 kts 296°
2026-05-04 18:35 47.03889 28.92340 11486 ft 344 kts 297°
2026-05-04 18:35 47.04787 28.89064 12291 ft 349 kts 296°
2026-05-04 18:35 47.05454 28.85593 13078 ft 361 kts 282°
2026-05-04 18:36 47.05668 28.81884 13855 ft 369 kts 276°
2026-05-04 18:36 47.05761 28.78104 14560 ft 373 kts 276°
2026-05-04 18:36 47.05872 28.74286 15295 ft 376 kts 276°
2026-05-04 18:36 47.06029 28.70440 16026 ft 380 kts 277°
2026-05-04 18:37 47.06220 28.66560 16742 ft 383 kts 277°
2026-05-04 18:37 47.06430 28.62643 17446 ft 387 kts 278°
2026-05-04 18:37 47.06649 28.58690 18140 ft 391 kts 277°
2026-05-04 18:37 47.06870 28.54698 18792 ft 394 kts 277°
2026-05-04 18:38 47.07091 28.50683 19404 ft 397 kts 277°
2026-05-04 18:38 47.07311 28.46633 20045 ft 399 kts 277°
2026-05-04 18:38 47.07530 28.42558 20662 ft 402 kts 277°
2026-05-04 18:38 47.07749 28.38453 21276 ft 405 kts 277°
2026-05-04 18:39 47.07969 28.34318 21877 ft 408 kts 277°
2026-05-04 18:39 47.08188 28.30151 22475 ft 411 kts 277°
2026-05-04 18:39 47.08407 28.25952 23058 ft 414 kts 277°
2026-05-04 18:39 47.08627 28.21721 23641 ft 417 kts 276°
2026-05-04 18:40 47.08846 28.17466 24138 ft 420 kts 276°
2026-05-04 18:40 47.09064 28.13183 24629 ft 422 kts 276°
2026-05-04 18:40 47.09282 28.08883 25110 ft 424 kts 276°
2026-05-04 18:40 47.09497 28.04610 25572 ft 427 kts 276°
2026-05-04 18:41 47.09718 28.00188 26043 ft 429 kts 276°
2026-05-04 18:41 47.09932 27.95871 26488 ft 432 kts 276°
2026-05-04 18:41 47.10148 27.91459 26924 ft 434 kts 276°
2026-05-04 18:41 47.10380 27.87029 27343 ft 436 kts 278°
2026-05-04 18:42 47.10901 27.82643 27747 ft 437 kts 285°
2026-05-04 18:42 47.11590 27.78280 28138 ft 440 kts 285°
2026-05-04 18:42 47.12276 27.73890 28525 ft 443 kts 284°
2026-05-04 18:42 47.12963 27.69469 28890 ft 446 kts 284°
2026-05-04 18:43 47.13651 27.65020 29255 ft 448 kts 284°
2026-05-04 18:43 47.14343 27.60544 29587 ft 451 kts 284°
2026-05-04 18:43 47.15046 27.55976 29934 ft 454 kts 284°
2026-05-04 18:43 47.15731 27.51510 30271 ft 455 kts 284°
2026-05-04 18:44 47.16435 27.46901 30627 ft 456 kts 284°
2026-05-04 18:44 47.16894 27.43891 30862 ft 457 kts 284°
2026-05-04 18:44 47.17813 27.37841 31344 ft 458 kts 284°
2026-05-04 18:44 47.18503 27.33279 31775 ft 456 kts 284°
2026-05-04 18:45 47.19190 27.28730 32217 ft 455 kts 284°
2026-05-04 18:45 47.19870 27.24208 32642 ft 453 kts 284°
2026-05-04 18:45 47.20549 27.19686 33049 ft 452 kts 284°
2026-05-04 18:45 47.21224 27.15177 33454 ft 451 kts 284°
2026-05-04 18:46 47.21894 27.10684 33852 ft 449 kts 284°
2026-05-04 18:46 47.22561 27.06207 34203 ft 448 kts 284°
2026-05-04 18:46 47.23225 27.01735 34488 ft 447 kts 283°
2026-05-04 18:46 47.23887 26.97261 34753 ft 447 kts 284°
2026-05-04 18:47 47.24546 26.92791 35018 ft 447 kts 283°
2026-05-04 18:47 47.25200 26.88350 35270 ft 447 kts 283°
2026-05-04 18:47 47.25859 26.83854 35534 ft 447 kts 283°
2026-05-04 18:47 47.26512 26.79387 35792 ft 446 kts 283°
2026-05-04 18:48 47.27163 26.74927 36032 ft 446 kts 283°
2026-05-04 18:48 47.27811 26.70467 36277 ft 445 kts 283°
2026-05-04 18:48 47.28458 26.66009 36525 ft 445 kts 283°
2026-05-04 18:48 47.29102 26.61552 36752 ft 445 kts 283°
2026-05-04 18:49 47.29745 26.57096 36966 ft 445 kts 283°
2026-05-04 18:49 47.30385 26.52642 37181 ft 444 kts 283°
2026-05-04 18:49 47.31023 26.48185 37392 ft 444 kts 283°
2026-05-04 18:49 47.31659 26.43735 37588 ft 444 kts 283°
2026-05-04 18:50 47.32293 26.39285 37798 ft 443 kts 283°
2026-05-04 18:50 47.32925 26.34841 37984 ft 443 kts 283°
2026-05-04 18:50 47.33555 26.30386 38037 ft 443 kts 283°
2026-05-04 18:51 47.34798 26.21570 38050 ft 442 kts 283°
2026-05-04 18:51 47.36042 26.12697 38054 ft 442 kts 283°
2026-05-04 18:52 47.37280 26.03810 38052 ft 442 kts 283°
2026-05-04 18:52 47.38511 25.94921 38068 ft 442 kts 283°
2026-05-04 18:53 47.39734 25.86032 38072 ft 442 kts 283°
2026-05-04 18:53 47.40951 25.77138 38066 ft 442 kts 283°
2026-05-04 18:54 47.42168 25.68187 38075 ft 442 kts 283°
2026-05-04 18:54 47.43362 25.59352 38062 ft 441 kts 283°
2026-05-04 18:55 47.44562 25.50411 38081 ft 440 kts 283°
2026-05-04 18:55 47.46330 25.37144 38083 ft 441 kts 283°
2026-05-04 18:56 47.47506 25.28252 38093 ft 441 kts 283°
2026-05-04 18:56 47.48677 25.19342 38099 ft 442 kts 283°
2026-05-04 18:57 47.49840 25.10425 38102 ft 442 kts 283°
2026-05-04 18:57 47.50997 25.01505 38100 ft 442 kts 282°
2026-05-04 18:58 47.52148 24.92579 38106 ft 441 kts 282°
2026-05-04 18:58 47.53291 24.83650 38104 ft 441 kts 282°
2026-05-04 18:59 47.54426 24.74732 38098 ft 441 kts 282°
2026-05-04 18:59 47.55555 24.65805 38102 ft 441 kts 282°
2026-05-04 19:00 47.56675 24.56882 38095 ft 441 kts 282°
2026-05-04 19:00 47.57789 24.47948 38096 ft 441 kts 282°
2026-05-04 19:01 47.58896 24.39020 38095 ft 441 kts 282°
2026-05-04 19:01 47.59996 24.30083 38100 ft 441 kts 282°
2026-05-04 19:02 47.61088 24.21146 38098 ft 441 kts 282°
2026-05-04 19:02 47.62176 24.12197 38095 ft 441 kts 282°
2026-05-04 19:03 47.63258 24.03260 38096 ft 440 kts 282°
2026-05-04 19:03 47.64748 23.94483 38096 ft 439 kts 288°
2026-05-04 19:04 47.66550 23.85890 38084 ft 439 kts 289°
2026-05-04 19:04 47.68352 23.77237 38082 ft 439 kts 288°
2026-05-04 19:05 47.70147 23.68518 38077 ft 439 kts 288°
2026-05-04 19:05 47.71920 23.59849 38071 ft 439 kts 288°
2026-05-04 19:06 47.73684 23.51181 38072 ft 438 kts 288°
2026-05-04 19:06 47.75423 23.42596 37736 ft 435 kts 288°
2026-05-04 19:07 47.76304 23.38235 37145 ft 434 kts 288°
2026-05-04 19:07 47.77158 23.33994 36462 ft 435 kts 289°
2026-05-04 19:07 47.78024 23.29686 35748 ft 436 kts 289°
2026-05-04 19:07 47.78891 23.25364 35041 ft 437 kts 289°
2026-05-04 19:08 47.79756 23.21038 34419 ft 436 kts 289°
2026-05-04 19:08 47.80614 23.16734 34149 ft 435 kts 289°
2026-05-04 19:08 47.82373 23.07913 34054 ft 444 kts 289°
2026-05-04 19:09 47.84103 22.99176 34054 ft 443 kts 289°
2026-05-04 19:09 47.85840 22.90374 34051 ft 443 kts 289°
2026-05-04 19:10 47.87569 22.81575 34072 ft 443 kts 289°
2026-05-04 19:10 47.89289 22.72776 34070 ft 443 kts 289°
2026-05-04 19:11 47.91005 22.63963 34066 ft 443 kts 289°
2026-05-04 19:11 47.92713 22.55148 34067 ft 443 kts 289°
2026-05-04 19:12 47.95264 22.41906 34064 ft 443 kts 289°
2026-05-04 19:13 47.96956 22.33075 34066 ft 443 kts 289°
2026-05-04 19:13 47.98639 22.24247 34064 ft 443 kts 289°
2026-05-04 19:14 48.00318 22.15401 34057 ft 443 kts 289°
2026-05-04 19:14 48.01707 22.08048 34061 ft 442 kts 289°
2026-05-04 19:15 48.03371 21.99209 34056 ft 442 kts 288°
2026-05-04 19:15 48.05244 21.88837 34054 ft 444 kts 283°
2026-05-04 19:16 48.05815 21.81212 34050 ft 446 kts 277°
2026-05-04 19:16 48.06360 21.71987 34045 ft 445 kts 278°
2026-05-04 19:17 48.07029 21.62793 34050 ft 444 kts 279°
2026-05-04 19:17 48.07735 21.53614 34051 ft 444 kts 279°
2026-05-04 19:18 48.08437 21.44447 34049 ft 444 kts 279°
2026-05-04 19:18 48.09129 21.35270 34051 ft 444 kts 279°
2026-05-04 19:19 48.09813 21.26104 34053 ft 444 kts 278°
2026-05-04 19:19 48.10490 21.16935 34052 ft 443 kts 278°
2026-05-04 19:20 48.11159 21.07760 34051 ft 443 kts 278°
2026-05-04 19:20 48.11821 20.98591 34051 ft 443 kts 278°
2026-05-04 19:21 48.12475 20.89412 34049 ft 443 kts 278°
2026-05-04 19:21 48.13122 20.80237 34054 ft 443 kts 278°
2026-05-04 19:22 48.13762 20.71059 34063 ft 443 kts 277°
2026-05-04 19:22 48.14395 20.61872 34055 ft 444 kts 277°
2026-05-04 19:23 48.15020 20.52682 34058 ft 444 kts 277°
2026-05-04 19:23 48.15635 20.43543 34065 ft 444 kts 277°
2026-05-04 19:24 48.16245 20.34354 34068 ft 443 kts 277°
2026-05-04 19:24 48.16848 20.25170 34068 ft 443 kts 277°
2026-05-04 19:25 48.17442 20.15993 34069 ft 442 kts 276°
2026-05-04 19:25 48.18029 20.06822 34069 ft 441 kts 276°
2026-05-04 19:26 48.18607 19.97676 34067 ft 441 kts 276°
2026-05-04 19:26 48.19176 19.88550 34063 ft 439 kts 276°
2026-05-04 19:27 48.19737 19.79432 34060 ft 438 kts 276°
2026-05-04 19:27 48.20289 19.70342 34055 ft 437 kts 276°
2026-05-04 19:28 48.20831 19.61294 33805 ft 433 kts 276°
2026-05-04 19:28 48.21097 19.56800 33169 ft 433 kts 276°
2026-05-04 19:28 48.21364 19.52292 32379 ft 435 kts 276°
2026-05-04 19:28 48.21630 19.47759 31504 ft 438 kts 276°
2026-05-04 19:29 48.21895 19.43197 30647 ft 441 kts 276°
2026-05-04 19:29 48.22160 19.38613 29876 ft 441 kts 276°
2026-05-04 19:29 48.22421 19.34052 29237 ft 436 kts 276°
2026-05-04 19:29 48.22678 19.29546 28610 ft 431 kts 275°
2026-05-04 19:30 48.22930 19.25086 27988 ft 427 kts 275°
2026-05-04 19:30 48.23178 19.20676 27377 ft 423 kts 275°
2026-05-04 19:30 48.23457 19.16302 26758 ft 419 kts 275°
2026-05-04 19:30 48.23659 19.11953 26174 ft 416 kts 274°
2026-05-04 19:31 48.23836 19.07644 25585 ft 412 kts 274°
2026-05-04 19:31 48.24027 19.03375 25025 ft 409 kts 274°
2026-05-04 19:31 48.24233 18.99164 24470 ft 405 kts 275°
2026-05-04 19:31 48.24450 18.94948 23923 ft 402 kts 275°
2026-05-04 19:32 48.24669 18.90781 23346 ft 399 kts 275°
2026-05-04 19:32 48.24886 18.86659 22740 ft 395 kts 275°
2026-05-04 19:32 48.25101 18.82582 22122 ft 391 kts 274°
2026-05-04 19:32 48.25313 18.78513 21524 ft 388 kts 274°
2026-05-04 19:33 48.25521 18.74493 20952 ft 385 kts 274°
2026-05-04 19:33 48.25725 18.70505 20365 ft 382 kts 274°
2026-05-04 19:33 48.25927 18.66547 19811 ft 379 kts 274°
2026-05-04 19:33 48.26125 18.62630 19263 ft 376 kts 273°
2026-05-04 19:34 48.26321 18.58728 18723 ft 373 kts 273°
2026-05-04 19:34 48.26514 18.54859 18183 ft 370 kts 273°
2026-05-04 19:34 48.26704 18.51020 17582 ft 367 kts 273°
2026-05-04 19:34 48.26891 18.47214 17017 ft 364 kts 272°
2026-05-04 19:35 48.27076 18.43437 16465 ft 361 kts 272°
2026-05-04 19:35 48.27258 18.39691 15914 ft 359 kts 272°
2026-05-04 19:35 48.27437 18.35977 15380 ft 356 kts 272°
2026-05-04 19:35 48.27613 18.32286 14852 ft 353 kts 272°
2026-05-04 19:36 48.27788 18.28615 14342 ft 351 kts 272°
2026-05-04 19:36 48.27960 18.24978 13834 ft 348 kts 272°
2026-05-04 19:36 48.28129 18.21368 13277 ft 346 kts 272°
2026-05-04 19:36 48.28296 18.17782 12735 ft 343 kts 272°
2026-05-04 19:37 48.28460 18.14224 12197 ft 340 kts 272°
2026-05-04 19:37 48.28623 18.10694 11674 ft 338 kts 272°
2026-05-04 19:37 48.28783 18.07188 11151 ft 335 kts 271°
2026-05-04 19:37 48.28940 18.03707 10649 ft 333 kts 272°
2026-05-04 19:38 48.29095 18.00269 10345 ft 324 kts 271°
2026-05-04 19:38 48.29245 17.96961 10215 ft 310 kts 271°
2026-05-04 19:38 48.29387 17.93799 10100 ft 297 kts 271°
2026-05-04 19:38 48.29522 17.90767 9959 ft 285 kts 271°
2026-05-04 19:39 48.29651 17.87813 9579 ft 283 kts 271°
2026-05-04 19:39 48.29777 17.84870 9131 ft 282 kts 271°
2026-05-04 19:39 48.29903 17.81942 8736 ft 280 kts 271°
2026-05-04 19:39 48.30028 17.79032 8345 ft 278 kts 271°
2026-05-04 19:40 48.30152 17.76136 7941 ft 277 kts 271°
2026-05-04 19:40 48.30275 17.73262 7558 ft 276 kts 271°
2026-05-04 19:40 48.30355 17.71357 7308 ft 275 kts 271°
2026-05-04 19:40 48.30476 17.68485 6935 ft 273 kts 271°
2026-05-04 19:41 48.30595 17.65646 6547 ft 272 kts 271°
2026-05-04 19:41 48.30713 17.62818 6188 ft 270 kts 271°
2026-05-04 19:41 48.30828 17.60049 5817 ft 268 kts 270°
2026-05-04 19:41 48.30944 17.57258 5451 ft 267 kts 270°
2026-05-04 19:42 48.31059 17.54488 5084 ft 265 kts 270°
2026-05-04 19:42 48.31173 17.51731 4725 ft 264 kts 269°
2026-05-04 19:42 48.31284 17.48997 4398 ft 260 kts 269°
2026-05-04 19:42 48.31393 17.46351 4283 ft 247 kts 269°
2026-05-04 19:43 48.31473 17.43864 4108 ft 229 kts 260°
2026-05-04 19:43 48.30957 17.41780 3912 ft 206 kts 232°
2026-05-04 19:43 48.30076 17.40170 3649 ft 194 kts 223°
2026-05-04 19:43 48.29143 17.38803 3452 ft 180 kts 220°
2026-05-04 19:44 48.28283 17.37560 3198 ft 161 kts 220°
2026-05-04 19:44 48.27531 17.36472 3007 ft 145 kts 219°
2026-05-04 19:44 48.26824 17.35450 2816 ft 142 kts 219°
2026-05-04 19:44 48.26116 17.34427 2635 ft 140 kts 219°
2026-05-04 19:45 48.25416 17.33413 2452 ft 139 kts 219°
2026-05-04 19:45 48.24721 17.32409 2271 ft 139 kts 218°
2026-05-04 19:45 48.24025 17.31403 2089 ft 139 kts 218°
2026-05-04 19:45 48.23330 17.30398 1898 ft 139 kts 218°
2026-05-04 19:46 48.22636 17.29393 1721 ft 138 kts 218°
2026-05-04 19:46 48.21949 17.28403 1533 ft 138 kts 218°
2026-05-04 19:46 48.21247 17.27389 1358 ft 143 kts 219°
2026-05-04 19:46 48.20763 17.26692 1232 ft 148 kts 220°
2026-05-04 19:47 48.19936 17.25502 1050 ft 155 kts 217°
2026-05-04 19:47 48.19152 17.24394 842 ft 157 kts 214°
2026-05-04 19:47 48.18388 17.23230 651 ft 154 kts 213°
2026-05-04 19:47 48.17696 17.22250 430 ft 144 kts 218°
2026-05-04 19:48 48.17297 17.21712 431 ft 120 kts 219°
2026-05-04 19:48 48.16840 17.21055 425 ft 62 kts 229°
2026-05-04 19:48 48.16587 17.20680 427 ft 25 kts 219°
2026-05-04 19:48 48.16586 17.20552 426 ft 7 kts 328°
2026-05-04 19:49 48.16626 17.20475 430 ft 11 kts 308°
2026-05-04 19:49 48.16660 17.20437 432 ft 0 kts 324°
2026-05-04 19:51 48.16665 17.20431 432 ft 3 kts 324°
2026-05-04 19:51 48.16696 17.20391 423 ft 8 kts 314°
2026-05-04 19:51 48.16744 17.20316 432 ft 12 kts 314°
2026-05-04 19:51 48.16808 17.20222 432 ft 14 kts 315°
2026-05-04 19:52 48.16851 17.20122 430 ft 9 kts 271°
2026-05-04 19:52 48.16858 17.20098 422 ft 6 kts 299°
2026-05-04 19:52 48.16873 17.20072 426 ft 1 kts 310°
2026-05-04 19:52 48.16891 17.20042 427 ft 6 kts 313°
2026-05-04 19:53 48.16893 17.20039 428 ft 0 kts 313°